Location: Haliburton Scout Reserve
(45.0900°N, 78.3200°W)
Time: 06:13:24
(UTC-05:00)

IDEFIX/ARIANE 42P - Visible Passes

Search period start: 04 March 2015 00:00
Search period end: 14 March 2015 01:00
Orbit: 786 x 803 km, 98.3° (Epoch: 03 March)

Date Brightness Start Highest point End Pass type
(mag) Time Alt. Az. Time Alt. Az. Time Alt. Az.
04 Mar 3.6 19:53:16 10° S 19:58:19 46° W 20:03:23 10° NNW visible
05 Mar 2.7 19:24:45 10° SSE 19:30:01 82° WSW 19:35:20 10° NNW visible
05 Mar 5.6 21:09:16 10° W 21:10:37 11° W 21:11:36 10° WNW visible
06 Mar 2.6 18:56:42 10° SSE 19:01:50 58° ENE 19:07:02 10° N visible
06 Mar 5.1 20:38:04 10° SW 20:41:55 20° W 20:45:38 10° NW visible
07 Mar 3.2 18:29:06 10° SE 18:33:47 34° ENE 18:38:30 10° N visible
07 Mar 4.2 20:08:37 10° SSW 20:13:24 34° W 20:18:09 10° NNW visible
08 Mar 3.1 20:39:50 10° S 20:45:01 60° W 20:50:14 10° NNW visible
09 Mar 2.5 20:11:32 10° SSE 20:16:47 79° ENE 20:22:04 10° N visible
09 Mar 5.4 21:54:13 10° WSW 21:57:08 14° W 21:59:47 10° NW visible
10 Mar 2.9 19:43:41 10° SE 19:48:39 45° ENE 19:53:40 10° N visible
10 Mar 4.7 21:24:10 10° SSW 21:28:31 25° W 21:32:47 10° NW visible
11 Mar 3.7 20:55:03 10° S 21:00:04 44° W 21:05:04 10° NNW visible
12 Mar 2.7 20:26:29 10° S 20:31:45 78° WSW 20:37:02 10° NNW visible
13 Mar 2.6 19:58:24 10° SSE 20:03:34 62° ENE 20:08:45 10° N visible
13 Mar 5.2 21:39:58 10° SW 21:43:41 19° W 21:47:13 10° NW visible
